Location: Newark
(34.4697°S, 57.8467°W)
Time: 04:04:59
(UTC+00:00)

N. Korean satellite - Pass Details

Date: 26 July 2019
Orbit: 457 x 507 km, 97.2° (Epoch: 20 August)

Event Time Altitude Azimuth Distance (km) Brightness Sun altitude
Rises 10:10:19 0° 330° (NNW) 2,583 10.1 -8.4°
Reaches altitude 10° 10:13:26 10° 300° (WNW) 1,702 8.9 -7.8°
Maximum altitude 10:15:05 13° 273° (W) 1,543 8.5 -7.5°
Drops below altitude 10° 10:16:45 10° 246° (WSW) 1,702 8.6 -7.2°
Enters shadow 10:17:22 - 238° (WSW) 1,833 8.8 -7.0°
